Weather History for Birmingham, AL

Change the Weather History Date:

Saturday, December 21, 2013

  Actual Average Record
Temperature  
Mean Temperature 68 °F 45 °F  
Max Temperature 74 °F 55 °F 74 °F (2013)
Min Temperature 62 °F 35 °F 11 °F (1901)
Degree Days  
Heating Degree Days 0 20  
Month to date heating degree days 333 382  
Since 1 July heating degree days 861 840  
Cooling Degree Days 2    
Growing Degree Days 18 (Base 50)    
Moisture  
Dew Point 64 °F    
Average Humidity 87    
Maximum Humidity 100    
Minimum Humidity 73    
Precipitation  
Precipitation 0.05 in 0.12 in 2.32 in (1908)
Month to date precipitation 4.51 3.12  
Year to date precipitation 65.32 52.39  
Snow  
Snow 0.00 in 0.00 in - ()
Month to date snowfall 0.0 0.0  
Since 1 July snowfall 0.0 0.0  
Snow Depth 0.00 in    
Sea Level Pressure  
Sea Level Pressure 29.89 in    
Wind  
Wind Speed 13 mph (SSE)    
Max Wind Speed 26 mph    
Max Gust Speed 36 mph    
Visibility 9 miles    
Events Rain    
T = Trace of Precipitation, MM = Missing Value Source: NWS Daily Summary

Daily Weather History Graph

Daily Weather History Graph

Search for Another Location

Airport:

Trip Planner

Search our weather history database for the weather conditions in past years. The results will help you decide how hot, cold, wet, or windy it might be!

Date:

Astronomy

Dec. 21, 2013 Rise Set
Actual Time 6:47 AM CST 4:43 PM CST
Civil Twilight 6:19 AM CST 5:10 PM CST
Nautical Twilight 5:48 AM CST 5:41 PM CST
Astronomical Twilight 5:18 AM CST 6:12 PM CST
Moon 8:48 PM CST (12/21) 9:23 AM CST (12/21)
Length of Visible Light 10h 50m
Length of Day
9h 55m
Waning Gibbous, 84% of the Moon is Illuminated
Dec 21
Waning Gibbous
Dec 25
Last Quarter
Jan 1
New
Jan 7
First Quarter
Jan 15
Full

Hourly Weather History & Observations

Time (CST) Temp. Dew Point Humidity Pressure Visibility Wind Dir Wind Speed Gust Speed Precip Events Conditions
12:53 AM 63.0 °F 57.9 °F 84% 30.01 in 10.0 mi SE 6.9 mph 18.4 mph N/A   Scattered Clouds
1:34 AM 62.6 °F 59.0 °F 88% 30.02 in 10.0 mi SSE 8.1 mph 18.4 mph N/A   Mostly Cloudy
1:53 AM 63.0 °F 59.0 °F 87% 30.00 in 10.0 mi SSE 9.2 mph - N/A   Mostly Cloudy
2:35 AM 62.6 °F 59.0 °F 88% 29.99 in 10.0 mi Variable 6.9 mph - N/A   Mostly Cloudy
2:53 AM 62.1 °F 57.9 °F 86% 29.98 in 10.0 mi SSE 8.1 mph - N/A   Mostly Cloudy
3:53 AM 63.0 °F 57.9 °F 84% 29.97 in 10.0 mi South 8.1 mph - N/A   Overcast
4:31 AM 64.4 °F 59.0 °F 83% 29.97 in 9.0 mi SSE 9.2 mph 21.9 mph N/A   Overcast
4:53 AM 63.0 °F 60.1 °F 90% 29.95 in 10.0 mi Variable 5.8 mph - N/A   Overcast
5:08 AM 62.6 °F 60.8 °F 94% 29.96 in 8.0 mi SSE 9.2 mph - N/A   Overcast
5:53 AM 63.0 °F 61.0 °F 93% 29.95 in 10.0 mi SSE 6.9 mph - 0.00 in   Overcast
6:53 AM 63.0 °F 62.1 °F 97% 29.94 in 4.0 mi SE 9.2 mph - 0.01 in   Overcast
7:46 AM 64.4 °F 62.6 °F 94% 29.95 in 1.8 mi SSE 8.1 mph - 0.00 in   Drizzle
7:53 AM 64.9 °F 63.0 °F 93% 29.94 in 1.8 mi South 6.9 mph - 0.01 in Rain Light Rain
7:57 AM 64.4 °F 62.6 °F 94% 29.95 in 3.0 mi South 8.1 mph - 0.00 in   Overcast
8:53 AM 66.0 °F 63.0 °F 90% 29.93 in 10.0 mi SSE 10.4 mph - 0.00 in   Overcast
9:53 AM 66.9 °F 64.0 °F 90% 29.92 in 10.0 mi South 12.7 mph 19.6 mph 0.00 in   Overcast
10:53 AM 66.9 °F 64.9 °F 93% 29.89 in 2.0 mi South 11.5 mph - 0.00 in Rain Light Rain
11:13 AM 68.0 °F 66.2 °F 94% 29.90 in 2.0 mi South 12.7 mph 19.6 mph 0.01 in Rain Light Rain
11:42 AM 69.8 °F 66.2 °F 88% 29.89 in 10.0 mi South 11.5 mph - 0.03 in   Overcast
11:53 AM 70.0 °F 66.9 °F 90% 29.87 in 10.0 mi South 12.7 mph 24.2 mph 0.03 in   Overcast
12:21 PM 71.6 °F 66.2 °F 83% 29.87 in 10.0 mi South 16.1 mph 24.2 mph N/A   Mostly Cloudy
12:53 PM 71.1 °F 66.0 °F 84% 29.84 in 10.0 mi South 13.8 mph 24.2 mph N/A   Overcast
1:53 PM 72.0 °F 66.9 °F 84% 29.81 in 10.0 mi SSE 10.4 mph 17.3 mph N/A   Overcast
2:48 PM 73.4 °F 66.2 °F 78% 29.83 in 10.0 mi SSE 12.7 mph 19.6 mph N/A   Overcast
2:53 PM 73.0 °F 66.9 °F 81% 29.81 in 10.0 mi SSE 9.2 mph 21.9 mph N/A   Overcast
3:35 PM 73.4 °F 66.2 °F 78% 29.82 in 10.0 mi SSE 13.8 mph 19.6 mph N/A   Mostly Cloudy
3:53 PM 73.9 °F 66.0 °F 76% 29.81 in 10.0 mi South 13.8 mph 23.0 mph N/A   Overcast
4:05 PM 73.4 °F 66.2 °F 78% 29.82 in 10.0 mi SSE 11.5 mph 25.3 mph N/A   Overcast
4:41 PM 73.4 °F 66.2 °F 78% 29.84 in 9.0 mi South 12.7 mph 24.2 mph 0.00 in Rain Light Rain
4:53 PM 73.0 °F 66.0 °F 79% 29.82 in 10.0 mi SSE 16.1 mph 25.3 mph 0.00 in   Overcast
5:53 PM 73.9 °F 66.0 °F 76% 29.83 in 10.0 mi South 16.1 mph 23.0 mph N/A   Overcast
6:53 PM 73.0 °F 66.0 °F 79% 29.83 in 10.0 mi South 21.9 mph 33.4 mph N/A   Overcast
7:53 PM 73.0 °F 66.0 °F 79% 29.83 in 10.0 mi South 18.4 mph 33.4 mph N/A   Mostly Cloudy
8:00 PM 73.4 °F 66.2 °F 78% 29.85 in 10.0 mi South 19.6 mph 29.9 mph N/A   Mostly Cloudy
8:53 PM 73.9 °F 66.0 °F 76% 29.84 in 10.0 mi South 23.0 mph 29.9 mph N/A   Overcast
9:01 PM 73.4 °F 66.2 °F 78% 29.86 in 10.0 mi South 18.4 mph 32.2 mph N/A   Overcast
9:10 PM 73.4 °F 66.2 °F 78% 29.85 in 10.0 mi South 15.0 mph 31.1 mph N/A   Overcast
9:31 PM 73.4 °F 66.2 °F 78% 29.86 in 10.0 mi South 19.6 mph 29.9 mph 0.00 in   Overcast
9:53 PM 73.0 °F 66.0 °F 79% 29.84 in 10.0 mi South 23.0 mph 32.2 mph 0.00 in   Mostly Cloudy
10:12 PM 73.4 °F 64.4 °F 73% 29.86 in 10.0 mi South 15.0 mph 27.6 mph N/A   Mostly Cloudy
10:53 PM 73.0 °F 64.9 °F 76% 29.84 in 10.0 mi South 15.0 mph 27.6 mph N/A   Overcast
11:12 PM 73.4 °F 64.4 °F 73% 29.84 in 10.0 mi South 18.4 mph 31.1 mph N/A   Overcast
11:53 PM 73.0 °F 64.9 °F 76% 29.82 in 10.0 mi South 24.2 mph 32.2 mph 0.00 in Rain Light Rain